Simultaneous Nadir Overpasses (SNOs) Predictions

Prediction of SNOs between NPP and TERRA Satellite Orbit:

Table of predicted SNOs for the next 14.0 days since TLE Epoch: 5/2/2013
Index Date (NPP) Time (NPP) Lat,Lon (NPP) SZA (NPP ) Date (TERRA) Time (TERRA) Lat,Lon (TERRA) SZA (TERRA ) Distance(km) Time Diff (sec)
1 05/02/2013 11:29:33 68.22, 6.08 52.60 05/02/2013 11:30:04 68.23, 6.06 52.61 1.52 31
2 05/02/2013 12:20:14 -68.10, 173.55 127.53 05/02/2013 12:19:34 -68.11, 173.56 127.52 1.51 40
3 05/05/2013 02:55:49 -68.56, -45.90 127.83 05/05/2013 02:57:01 -68.47, -45.41 127.92 22.47 72
4 05/05/2013 03:46:29 68.20, 121.88 51.80 05/05/2013 03:46:31 68.19, 121.90 51.79 1.49 2
5 05/05/2013 04:37:10 -68.08, -70.66 128.33 05/05/2013 04:36:01 -68.08, -70.59 128.33 2.61 69
6 05/07/2013 19:12:40 -68.28, 70.24 128.86 05/07/2013 19:13:30 -68.30, 70.28 128.84 2.93 50
7 05/07/2013 20:03:24 68.13,-122.27 50.99 05/07/2013 20:02:58 68.12,-122.28 50.98 0.94 26
8 05/07/2013 20:53:50 -67.20, 46.18 129.96 05/07/2013 20:52:42 -67.24, 44.34 129.91 79.37 68
9 05/10/2013 10:39:07 69.03, 17.69 51.21 05/10/2013 10:40:16 68.93, 19.32 51.09 66.24 69
10 05/10/2013 11:29:35 -68.21,-173.91 129.63 05/10/2013 11:29:57 -68.21,-173.93 129.64 0.91 22
11 05/10/2013 12:20:18 68.07, -6.42 50.22 05/10/2013 12:19:23 68.09, -6.43 50.24 2.22 55
12 05/13/2013 02:55:48 68.28, 134.46 49.77 05/13/2013 02:56:51 68.31, 134.45 49.80 3.45 63
13 05/13/2013 03:46:29 -68.16, -58.06
